| time (UTC) | temp C | wind direction | speed KPH | gust KPH | rain 1hr cm | rain 24hr cm | rain mn cm | humidity % | barometer mb |
| 20260506104010 | 23 | 172 | 1.6 | 8.0 | 0.00 | 0.00 | 0.00 | 89 | 1009.2 |
| 20260506104007 | 23 | 209 | 0.0 | 3.2 | 0.00 | 0.00 | 0.00 | 89 | 1009.9 |
| 20260506103508 | 23 | 208 | 0.0 | 3.2 | 0.00 | 0.00 | 0.00 | 89 | 1009.9 |
| 20260506103503 | 23 | 192 | 1.6 | 6.4 | 0.00 | 0.00 | 0.00 | 89 | 1009.2 |
| 20260506103018 | 23 | 207 | 0.0 | 3.2 | 0.00 | 0.00 | 0.00 | 89 | 1009.9 |
| 20260506103008 | 23 | 180 | 3.2 | 9.7 | 0.00 | 0.00 | 0.00 | 89 | 1009.3 |
| 20260506102510 | 23 | 159 | 0.0 | 3.2 | 0.00 | 0.00 | 0.00 | 89 | 1009.9 |
| 20260506102503 | 23 | 209 | 3.2 | 8.0 | 0.00 | 0.00 | 0.00 | 89 | 1009.2 |
| 20260506102011 | 23 | 248 | 0.0 | 3.2 | 0.00 | 0.00 | 0.00 | 89 | 1009.8 |
| 20260506102004 | 23 | 202 | 3.2 | 8.0 | 0.00 | 0.00 | 0.00 | 89 | 1009.1 |
| 20260506101518 | 23 | 166 | 0.0 | 3.2 | 0.00 | 0.00 | 0.00 | 89 | 1009.8 |
| 20260506101512 | 23 | 138 | 4.8 | 6.4 | 0.00 | 0.00 | 0.00 | 89 | 1009.2 |
| 20260506101006 | 23 | 207 | 0.0 | 3.2 | 0.00 | 0.00 | 0.00 | 89 | 1009.8 |
| 20260506100508 | 23 | 196 | 3.2 | 8.0 | 0.00 | 0.00 | 0.00 | 89 | 1009.0 |
| 20260506100504 | 23 | 226 | 0.0 | 3.2 | 0.00 | 0.00 | 0.00 | 89 | 1009.7 |
| 20260506100017 | 23 | 182 | 0.0 | 3.2 | 0.00 | 0.00 | 0.00 | 89 | 1009.5 |
| 20260506100012 | 23 | 165 | 4.8 | 8.0 | 0.00 | 0.00 | 0.00 | 89 | 1008.9 |
| 20260506095506 | 23 | 242 | 0.0 | 3.2 | 0.00 | 0.00 | 0.00 | 89 | 1009.5 |
| 20260506095008 | 23 | 215 | 0.0 | 4.8 | 0.00 | 0.00 | 0.00 | 89 | 1009.5 |
| 20260506095006 | 23 | 210 | 3.2 | 12.9 | 0.00 | 0.00 | 0.00 | 89 | 1008.8 |
| 20260506094521 | 23 | 161 | 0.0 | 4.8 | 0.00 | 0.00 | 0.00 | 88 | 1009.4 |
| 20260506094507 | 23 | 153 | 4.8 | 12.9 | 0.00 | 0.00 | 0.00 | 88 | 1008.8 |
| 20260506094005 | 23 | 224 | 1.6 | 6.4 | 0.00 | 0.00 | 0.00 | 88 | 1009.3 |
| 20260506093507 | 23 | 163 | 0.0 | 6.4 | 0.00 | 0.00 | 0.00 | 89 | 1009.3 |
| 20260506093505 | 23 | 143 | 4.8 | 12.9 | 0.00 | 0.00 | 0.00 | 89 | 1008.6 |
| 20260506093033 | 23 | 157 | 3.2 | 9.7 | 0.00 | 0.00 | 0.00 | 89 | 1008.5 |
| 20260506093023 | 23 | 236 | 0.0 | 4.8 | 0.00 | 0.00 | 0.00 | 89 | 1009.1 |
| 20260506092508 | 23 | 246 | 1.6 | 4.8 | 0.00 | 0.00 | 0.00 | 89 | 1009.0 |
| 20260506092503 | 23 | 234 | 6.4 | 11.3 | 0.00 | 0.00 | 0.00 | 89 | 1008.4 |
| 20260506092007 | 23 | 198 | 1.6 | 6.4 | 0.00 | 0.00 | 0.00 | 89 | 1009.0 |
| 20260506092004 | 23 | 167 | 8.0 | 14.5 | 0.00 | 0.00 | 0.00 | 89 | 1008.4 |
| 20260506091525 | 23 | 209 | 0.0 | 6.4 | 0.00 | 0.00 | 0.00 | 89 | 1009.1 |
| 20260506091512 | 23 | 184 | 8.0 | 16.1 | 0.00 | 0.00 | 0.00 | 89 | 1008.5 |
| 20260506091010 | 23 | 222 | 0.0 | 3.2 | 0.00 | 0.00 | 0.00 | 89 | 1009.0 |
| 20260506091003 | 23 | 163 | 6.4 | 16.1 | 0.00 | 0.00 | 0.00 | 89 | 1008.3 |
| 20260506090507 | 23 | 201 | 8.0 | 16.1 | 0.00 | 0.00 | 0.00 | 89 | 1008.5 |
| 20260506090022 | 23 | 136 | 6.4 | 12.9 | 0.00 | 0.00 | 0.00 | 89 | 1008.5 |
| 20260506090014 | 23 | 160 | 1.6 | 4.8 | 0.00 | 0.00 | 0.00 | 89 | 1009.1 |
| 20260506085506 | 23 | 140 | 8.0 | 14.5 | 0.00 | 0.00 | 0.00 | 89 | 1008.4 |
| 20260506085011 | 23 | 186 | 1.6 | 3.2 | 0.00 | 0.00 | 0.00 | 89 | 1009.1 |
| 20260506085003 | 23 | 145 | 4.8 | 14.5 | 0.00 | 0.00 | 0.00 | 89 | 1008.4 |
| 20260506084531 | 23 | 173 | 6.4 | 19.3 | 0.00 | 0.00 | 0.00 | 89 | 1008.3 |
| 20260506084520 | 23 | 304 | 1.6 | 4.8 | 0.00 | 0.00 | 0.00 | 89 | 1009.1 |
| 20260506084008 | 23 | 165 | 6.4 | 17.7 | 0.00 | 0.00 | 0.00 | 89 | 1008.4 |
| 20260506083506 | 23 | 190 | 1.6 | 6.4 | 0.00 | 0.00 | 0.00 | 89 | 1009.0 |
| 20260506083504 | 23 | 143 | 9.7 | 17.7 | 0.00 | 0.00 | 0.00 | 89 | 1008.5 |
| 20260506083015 | 23 | 180 | 1.6 | 6.4 | 0.00 | 0.00 | 0.00 | 89 | 1009.0 |
| 20260506083013 | 23 | 174 | 6.4 | 19.3 | 0.00 | 0.00 | 0.00 | 89 | 1008.4 |
| 20260506082507 | 23 | 184 | 0.0 | 8.0 | 0.00 | 0.00 | 0.00 | 89 | 1009.0 |
| 20260506082013 | 23 | 71 | 6.4 | 19.3 | 0.00 | 0.00 | 0.00 | 89 | 1008.3 |
| 20260506081527 | 23 | 161 | 1.6 | 6.4 | 0.00 | 0.00 | 0.00 | 89 | 1008.9 |
| 20260506081512 | 23 | 178 | 4.8 | 14.5 | 0.00 | 0.00 | 0.00 | 89 | 1008.2 |
| 20260506081011 | 23 | 183 | 1.6 | 8.0 | 0.00 | 0.00 | 0.00 | 89 | 1008.9 |
| 20260506081004 | 23 | 235 | 6.4 | 19.3 | 0.00 | 0.00 | 0.00 | 89 | 1008.2 |
| 20260506080507 | 23 | 193 | 0.0 | 8.0 | 0.00 | 0.00 | 0.00 | 89 | 1009.0 |
| 20260506080503 | 23 | 254 | 6.4 | 22.5 | 0.00 | 0.00 | 0.00 | 89 | 1008.4 |
| 20260506073508 | 23 | 261 | 1.6 | 4.8 | 0.00 | 0.00 | 0.00 | 89 | 1009.3 |
| 20260506073024 | 23 | 178 | 9.7 | 17.7 | 0.00 | 0.00 | 0.00 | 89 | 1008.6 |
| 20260506072517 | 23 | 196 | 0.0 | 4.8 | 0.00 | 0.00 | 0.00 | 89 | 1009.3 |
| 20260506072512 | 23 | 200 | 9.7 | 19.3 | 0.00 | 0.00 | 0.00 | 89 | 1008.7 |
| 20260506072008 | 23 | 186 | 1.6 | 6.4 | 0.00 | 0.00 | 0.00 | 89 | 1009.3 |
| 20260506072003 | 23 | 157 | 9.7 | 19.3 | 0.00 | 0.00 | 0.00 | 89 | 1008.7 |
| 20260506071522 | 23 | 153 | 1.6 | 8.0 | 0.00 | 0.00 | 0.00 | 89 | 1009.4 |
| 20260506071520 | 23 | 155 | 8.0 | 19.3 | 0.00 | 0.00 | 0.00 | 89 | 1008.8 |
| 20260506071011 | 23 | 160 | 1.6 | 8.0 | 0.00 | 0.00 | 0.00 | 89 | 1009.4 |
| 20260506070508 | 23 | 150 | 1.6 | 6.4 | 0.00 | 0.00 | 0.00 | 89 | 1009.4 |
| 20260506070504 | 23 | 161 | 8.0 | 12.9 | 0.00 | 0.00 | 0.00 | 89 | 1008.8 |
| 20260506062511 | 23 | 136 | 1.6 | 6.4 | 0.00 | 0.00 | 0.00 | 89 | 1009.5 |
| 20260506062507 | 23 | 140 | 4.8 | 11.3 | 0.00 | 0.00 | 0.00 | 89 | 1008.9 |
| 20260506062011 | 23 | 160 | 4.8 | 11.3 | 0.00 | 0.00 | 0.00 | 89 | 1008.9 |
| 20260506062009 | 23 | 182 | 1.6 | 6.4 | 0.00 | 0.00 | 0.00 | 89 | 1009.5 |
| 20260506061529 | 23 | 220 | 4.8 | 12.9 | 0.00 | 0.00 | 0.00 | 89 | 1008.9 |
| 20260506061508 | 23 | 194 | 1.6 | 4.8 | 0.00 | 0.00 | 0.00 | 89 | 1009.6 |
| 20260506061010 | 23 | 158 | 4.8 | 12.9 | 0.00 | 0.00 | 0.00 | 89 | 1008.9 |
| 20260506061008 | 23 | 223 | 1.6 | 6.4 | 0.00 | 0.00 | 0.00 | 89 | 1009.5 |
| 20260506060508 | 23 | 155 | 4.8 | 12.9 | 0.00 | 0.00 | 0.00 | 89 | 1008.9 |
| 20260506051012 | 23 | 174 | 1.6 | 6.4 | 0.00 | 0.00 | 0.00 | 88 | 1009.7 |
| 20260506051007 | 23 | 158 | 6.4 | 17.7 | 0.00 | 0.00 | 0.00 | 88 | 1009.1 |
| 20260506050509 | 23 | 162 | 4.8 | 16.1 | 0.00 | 0.00 | 0.00 | 88 | 1008.9 |
| 20260506050506 | 23 | 181 | 1.6 | 6.4 | 0.00 | 0.00 | 0.00 | 88 | 1009.7 |
| 20260506045011 | 23 | 209 | 6.4 | 14.5 | 0.00 | 0.00 | 0.00 | 88 | 1009.0 |
| 20260506045005 | 23 | 217 | 0.0 | 8.0 | 0.00 | 0.00 | 0.00 | 88 | 1009.6 |
| 20260506044538 | 23 | 190 | 8.0 | 14.5 | 0.00 | 0.00 | 0.00 | 88 | 1009.0 |
| 20260506044512 | 23 | 165 | 1.6 | 8.0 | 0.00 | 0.00 | 0.00 | 88 | 1009.6 |
| 20260506044008 | 23 | 90 | 4.8 | 17.7 | 0.00 | 0.00 | 0.00 | 88 | 1008.9 |
| 20260506044004 | 23 | 176 | 1.6 | 8.0 | 0.00 | 0.00 | 0.00 | 88 | 1009.5 |
| 20260506043507 | 23 | 155 | 9.7 | 17.7 | 0.00 | 0.00 | 0.00 | 88 | 1008.9 |
| 20260506043504 | 23 | 211 | 0.0 | 6.4 | 0.00 | 0.00 | 0.00 | 88 | 1009.5 |
| 20260506043021 | 23 | 159 | 3.2 | 11.3 | 0.00 | 0.00 | 0.00 | 88 | 1008.8 |
| 20260506043012 | 23 | 202 | 0.0 | 8.0 | 0.00 | 0.00 | 0.00 | 88 | 1009.4 |
| 20260506042508 | 23 | 220 | 0.0 | 8.0 | 0.00 | 0.00 | 0.00 | 87 | 1009.5 |
| 20260506042504 | 23 | 153 | 4.8 | 12.9 | 0.00 | 0.00 | 0.00 | 87 | 1008.8 |
| 20260506042019 | 23 | 197 | 1.6 | 6.4 | 0.00 | 0.00 | 0.00 | 88 | 1009.5 |
| 20260506042009 | 23 | 146 | 4.8 | 12.9 | 0.00 | 0.00 | 0.00 | 88 | 1008.8 |
| 20260506041532 | 23 | 140 | 3.2 | 16.1 | 0.00 | 0.00 | 0.00 | 88 | 1008.7 |
| 20260506041530 | 23 | 194 | 1.6 | 8.0 | 0.00 | 0.00 | 0.00 | 88 | 1009.3 |
| 20260506041008 | 23 | 146 | 6.4 | 14.5 | 0.00 | 0.00 | 0.00 | 88 | 1008.7 |
| 20260506040510 | 23 | 159 | 0.0 | 6.4 | 0.00 | 0.00 | 0.00 | 87 | 1009.4 |
| 20260506040507 | 23 | 220 | 4.8 | 12.9 | 0.00 | 0.00 | 0.00 | 87 | 1008.7 |
| 20260506040033 | 23 | 150 | 3.2 | 9.7 | 0.00 | 0.00 | 0.00 | 87 | 1008.7 |
| 20260506040027 | 23 | 166 | 0.0 | 6.4 | 0.00 | 0.00 | 0.00 | 87 | 1009.4 |
| 20260506035509 | 23 | 151 | 3.2 | 8.0 | 0.00 | 0.00 | 0.00 | 87 | 1008.8 |
| 20260506035504 | 23 | 212 | 1.6 | 6.4 | 0.00 | 0.00 | 0.00 | 87 | 1009.4 |
| 20260506035006 | 23 | 154 | 1.6 | 6.4 | 0.00 | 0.00 | 0.00 | 87 | 1008.7 |
| 20260506035004 | 23 | 202 | 1.6 | 4.8 | 0.00 | 0.00 | 0.00 | 87 | 1009.4 |
| 20260506034531 | 23 | 149 | 1.6 | 9.7 | 0.00 | 0.00 | 0.00 | 86 | 1008.6 |
| 20260506034523 | 23 | 189 | 1.6 | 4.8 | 0.00 | 0.00 | 0.00 | 86 | 1009.2 |
| 20260506034008 | 23 | 136 | 3.2 | 9.7 | 0.00 | 0.00 | 0.00 | 86 | 1008.5 |
| 20260506034004 | 23 | 238 | 0.0 | 3.2 | 0.00 | 0.00 | 0.00 | 86 | 1009.2 |
| 20260506033512 | 23 | 173 | 3.2 | 14.5 | 0.00 | 0.00 | 0.00 | 85 | 1008.3 |
| 20260506033504 | 23 | 150 | 0.0 | 4.8 | 0.00 | 0.00 | 0.00 | 85 | 1009.0 |
| 20260506033020 | 23 | 140 | 4.8 | 14.5 | 0.00 | 0.00 | 0.00 | 85 | 1008.1 |
| 20260506033014 | 23 | 201 | 1.6 | 6.4 | 0.00 | 0.00 | 0.00 | 85 | 1008.8 |
| 20260506032513 | 23 | 213 | 0.0 | 6.4 | 0.00 | 0.00 | 0.00 | 85 | 1008.7 |
| 20260506032507 | 23 | 155 | 4.8 | 14.5 | 0.00 | 0.00 | 0.00 | 85 | 1008.1 |
| 20260506032009 | 23 | 160 | 6.4 | 14.5 | 0.00 | 0.00 | 0.00 | 85 | 1008.2 |
| 20260506031523 | 23 | 230 | 1.6 | 6.4 | 0.00 | 0.00 | 0.00 | 85 | 1008.6 |
| 20260506031520 | 23 | 178 | 6.4 | 14.5 | 0.00 | 0.00 | 0.00 | 85 | 1008.2 |
| 20260506031008 | 24 | 171 | 6.4 | 17.7 | 0.00 | 0.00 | 0.00 | 84 | 1008.1 |
| 20260506030508 | 24 | 163 | 1.6 | 6.4 | 0.00 | 0.00 | 0.00 | 84 | 1008.7 |
| 20260506030015 | 24 | 148 | 1.6 | 8.0 | 0.00 | 0.00 | 0.00 | 84 | 1008.4 |
| 20260506030004 | 24 | 133 | 4.8 | 17.7 | 0.00 | 0.00 | 0.00 | 84 | 1007.9 |
| 20260506025506 | 24 | 184 | 1.6 | 8.0 | 0.00 | 0.00 | 0.00 | 84 | 1008.4 |
| 20260506025010 | 24 | 146 | 1.6 | 8.0 | 0.00 | 0.00 | 0.00 | 84 | 1008.5 |
| 20260506025004 | 24 | 183 | 6.4 | 12.9 | 0.00 | 0.00 | 0.00 | 84 | 1007.8 |
| 20260506024530 | 24 | 175 | 1.6 | 6.4 | 0.00 | 0.00 | 0.00 | 84 | 1008.5 |
| 20260506024515 | 24 | 150 | 3.2 | 11.3 | 0.00 | 0.00 | 0.00 | 84 | 1007.6 |
| 20260506024006 | 24 | 190 | 1.6 | 6.4 | 0.00 | 0.00 | 0.00 | 84 | 1008.2 |
| 20260506024002 | 24 | 167 | 3.2 | 11.3 | 0.00 | 0.00 | 0.00 | 84 | 1007.6 |
| 20260506023508 | 24 | 124 | 1.6 | 8.0 | 0.00 | 0.00 | 0.00 | 85 | 1008.1 |
| 20260506023502 | 24 | 177 | 4.8 | 11.3 | 0.00 | 0.00 | 0.00 | 85 | 1007.6 |
| 20260506023016 | 24 | 134 | 3.2 | 8.0 | 0.00 | 0.00 | 0.00 | 84 | 1007.5 |
| 20260506023012 | 24 | 151 | 1.6 | 6.4 | 0.00 | 0.00 | 0.00 | 84 | 1008.1 |
| 20260506022508 | 24 | 132 | 0.0 | 4.8 | 0.00 | 0.00 | 0.00 | 84 | 1007.4 |
| 20260506022505 | 24 | 157 | 0.0 | 3.2 | 0.00 | 0.00 | 0.00 | 84 | 1008.1 |
| 20260506022007 | 24 | 162 | 0.0 | 3.2 | 0.00 | 0.00 | 0.00 | 83 | 1007.9 |
| 20260506021518 | 25 | 169 | 0.0 | 4.8 | 0.00 | 0.00 | 0.00 | 83 | 1007.8 |
| 20260506021507 | 25 | 149 | 1.6 | 11.3 | 0.00 | 0.00 | 0.00 | 83 | 1007.2 |
| 20260506021009 | 25 | 154 | 3.2 | 11.3 | 0.00 | 0.00 | 0.00 | 82 | 1007.2 |
| 20260506020512 | 25 | 186 | 3.2 | 6.4 | 0.00 | 0.00 | 0.00 | 83 | 1007.9 |
| 20260506020510 | 25 | 140 | 3.2 | 14.5 | 0.00 | 0.00 | 0.00 | 83 | 1007.1 |
| 20260506020025 | 25 | 157 | 1.6 | 3.2 | 0.00 | 0.00 | 0.00 | 83 | 1007.8 |
| 20260506020003 | 25 | 145 | 3.2 | 14.5 | 0.00 | 0.00 | 0.00 | 83 | 1007.1 |
| 20260506015508 | 25 | 198 | 0.0 | 3.2 | 0.00 | 0.00 | 0.00 | 83 | 1007.8 |
| 20260506015503 | 25 | 159 | 3.2 | 8.0 | 0.00 | 0.00 | 0.00 | 83 | 1007.1 |
| 20260506015007 | 25 | 175 | 0.0 | 3.2 | 0.00 | 0.00 | 0.00 | 84 | 1007.8 |
| 20260506015003 | 25 | 150 | 3.2 | 6.4 | 0.00 | 0.00 | 0.00 | 84 | 1007.1 |
| 20260506014522 | 25 | 81 | 0.0 | 3.2 | 0.00 | 0.00 | 0.00 | 83 | 1007.8 |
| 20260506014506 | 25 | 165 | 3.2 | 6.4 | 0.00 | 0.00 | 0.00 | 83 | 1007.1 |
| 20260506014010 | 25 | 165 | 0.0 | 3.2 | 0.00 | 0.00 | 0.00 | 83 | 1007.7 |
| 20260506014004 | 25 | 143 | 1.6 | 6.4 | 0.00 | 0.00 | 0.00 | 83 | 1007.1 |
| 20260506013511 | 25 | 197 | 0.0 | 3.2 | 0.00 | 0.00 | 0.00 | 83 | 1007.8 |
| 20260506013505 | 25 | 158 | 1.6 | 6.4 | 0.00 | 0.00 | 0.00 | 83 | 1007.1 |
| 20260506013024 | 25 | 121 | 0.0 | 4.8 | 0.00 | 0.00 | 0.00 | 83 | 1007.7 |
| 20260506013014 | 25 | 142 | 1.6 | 4.8 | 0.00 | 0.00 | 0.00 | 83 | 1007.1 |
| 20260506012509 | 25 | 167 | 0.0 | 4.8 | 0.00 | 0.00 | 0.00 | 82 | 1007.7 |
| 20260506012506 | 25 | 152 | 1.6 | 6.4 | 0.00 | 0.00 | 0.00 | 82 | 1007.1 |
| 20260506012008 | 25 | 156 | 3.2 | 11.3 | 0.00 | 0.00 | 0.00 | 81 | 1006.9 |
| 20260506012005 | 25 | 167 | 0.0 | 4.8 | 0.00 | 0.00 | 0.00 | 81 | 1007.7 |
| 20260506011535 | 25 | 158 | 1.6 | 11.3 | 0.00 | 0.00 | 0.00 | 81 | 1006.9 |
| 20260506011514 | 25 | 211 | 0.0 | 3.2 | 0.00 | 0.00 | 0.00 | 81 | 1007.5 |
| 20260506011010 | 26 | 123 | 3.2 | 9.7 | 0.00 | 0.00 | 0.00 | 81 | 1006.8 |
| 20260506011005 | 26 | 169 | 0.0 | 3.2 | 0.00 | 0.00 | 0.00 | 81 | 1007.6 |
| 20260506010510 | 26 | 194 | 0.0 | 3.2 | 0.00 | 0.00 | 0.00 | 81 | 1007.6 |
| 20260506010503 | 26 | 144 | 3.2 | 8.0 | 0.00 | 0.00 | 0.00 | 81 | 1006.9 |
| 20260506010026 | 26 | 194 | 0.0 | 3.2 | 0.00 | 0.00 | 0.00 | 81 | 1007.6 |
| 20260506010011 | 26 | 158 | 1.6 | 4.8 | 0.00 | 0.00 | 0.00 | 81 | 1006.8 |
| 20260506005508 | 26 | 159 | 1.6 | 4.8 | 0.00 | 0.00 | 0.00 | 80 | 1006.8 |
| 20260506005012 | 26 | 175 | 0.0 | 3.2 | 0.00 | 0.00 | 0.00 | 80 | 1007.5 |
| 20260506005007 | 26 | 111 | 1.6 | 6.4 | 0.00 | 0.00 | 0.00 | 80 | 1006.7 |
| 20260506004535 | 26 | 180 | 0.0 | 3.2 | 0.00 | 0.00 | 0.00 | 79 | 1007.4 |
| 20260506004511 | 26 | 171 | 1.6 | 6.4 | 0.00 | 0.00 | 0.00 | 79 | 1006.7 |
| 20260506004006 | 26 | 174 | 0.0 | 3.2 | 0.00 | 0.00 | 0.00 | 79 | 1007.4 |
| 20260506004003 | 26 | 159 | 1.6 | 6.4 | 0.00 | 0.00 | 0.00 | 79 | 1006.7 |
| 20260506003511 | 26 | 198 | 0.0 | 6.4 | 0.00 | 0.00 | 0.00 | 79 | 1007.3 |
| 20260506003503 | 26 | 163 | 3.2 | 12.9 | 0.00 | 0.00 | 0.00 | 79 | 1006.6 |
| 20260506003026 | 26 | 165 | 0.0 | 6.4 | 0.00 | 0.00 | 0.00 | 78 | 1007.1 |
| 20260506003006 | 26 | 157 | 3.2 | 12.9 | 0.00 | 0.00 | 0.00 | 78 | 1006.4 |
| 20260506002511 | 26 | 241 | 0.0 | 3.2 | 0.00 | 0.00 | 0.00 | 78 | 1007.1 |
| 20260506002504 | 26 | 153 | 4.8 | 12.9 | 0.00 | 0.00 | 0.00 | 78 | 1006.4 |
| 20260506002007 | 26 | 170 | 0.0 | 3.2 | 0.00 | 0.00 | 0.00 | 78 | 1007.1 |
| 20260506001522 | 27 | 132 | 0.0 | 3.2 | 0.00 | 0.00 | 0.00 | 77 | 1007.0 |
| 20260506001512 | 27 | 143 | 3.2 | 8.0 | 0.00 | 0.00 | 0.00 | 77 | 1006.3 |
| 20260506001006 | 27 | 250 | 0.0 | 3.2 | 0.00 | 0.00 | 0.00 | 77 | 1007.0 |
| 20260506001004 | 27 | 178 | 1.6 | 9.7 | 0.00 | 0.00 | 0.00 | 77 | 1006.3 |
| 20260506000508 | 27 | 207 | 0.0 | 8.0 | 0.00 | 0.00 | 0.00 | 77 | 1007.0 |
| 20260506000023 | 27 | 200 | 1.6 | 8.0 | 0.00 | 0.00 | 0.00 | 76 | 1006.9 |
| 20260506000021 | 27 | 160 | 4.8 | 9.7 | 0.00 | 0.00 | 0.00 | 76 | 1006.2 |
| 20260505235511 | 27 | 163 | 0.0 | 6.4 | 0.00 | 0.00 | 0.00 | 76 | 1007.0 |
| 20260505235502 | 27 | 171 | 3.2 | 8.0 | 0.00 | 0.00 | 0.00 | 76 | 1006.2 |
| 20260505235007 | 27 | 175 | 0.0 | 6.4 | 0.00 | 0.00 | 0.00 | 76 | 1006.9 |
| 20260505235003 | 27 | 141 | 3.2 | 8.0 | 0.00 | 0.00 | 0.00 | 76 | 1006.2 |
| 20260505234524 | 27 | 184 | 0.0 | 3.2 | 0.00 | 0.00 | 0.00 | 77 | 1006.9 |
| 20260505234522 | 27 | 166 | 1.6 | 8.0 | 0.00 | 0.00 | 0.00 | 77 | 1006.2 |
| 20260505234012 | 27 | 173 | 3.2 | 8.0 | 0.00 | 0.00 | 0.00 | 75 | 1006.2 |
| 20260505234006 | 27 | 192 | 0.0 | 6.4 | 0.00 | 0.00 | 0.00 | 75 | 1006.9 |
| 20260505233513 | 27 | 173 | 0.0 | 8.0 | 0.00 | 0.00 | 0.00 | 75 | 1006.9 |
| 20260505233504 | 27 | 145 | 3.2 | 14.5 | 0.00 | 0.00 | 0.00 | 75 | 1006.1 |
| 20260505233014 | 27 | 186 | 0.0 | 6.4 | 0.00 | 0.00 | 0.00 | 74 | 1006.9 |
| 20260505233005 | 27 | 190 | 4.8 | 14.5 | 0.00 | 0.00 | 0.00 | 74 | 1006.2 |
| 20260505232507 | 27 | 182 | 0.0 | 3.2 | 0.00 | 0.00 | 0.00 | 74 | 1006.9 |
| 20260505232505 | 27 | 162 | 3.2 | 14.5 | 0.00 | 0.00 | 0.00 | 74 | 1006.2 |
| 20260505232007 | 27 | 182 | 1.6 | 6.4 | 0.00 | 0.00 | 0.00 | 74 | 1006.8 |
| 20260505232003 | 27 | 171 | 1.6 | 14.5 | 0.00 | 0.00 | 0.00 | 74 | 1006.1 |
| 20260505231527 | 27 | 173 | 0.0 | 6.4 | 0.00 | 0.00 | 0.00 | 74 | 1006.8 |
| 20260505231512 | 27 | 150 | 3.2 | 12.9 | 0.00 | 0.00 | 0.00 | 74 | 1006.0 |
| 20260505231007 | 27 | 183 | 1.6 | 4.8 | 0.00 | 0.00 | 0.00 | 73 | 1006.8 |
| 20260505231004 | 27 | 166 | 3.2 | 12.9 | 0.00 | 0.00 | 0.00 | 73 | 1006.0 |
| 20260505230509 | 27 | 89 | 0.0 | 4.8 | 0.00 | 0.00 | 0.00 | 74 | 1006.8 |
| 20260505230506 | 27 | 168 | 4.8 | 12.9 | 0.00 | 0.00 | 0.00 | 74 | 1006.0 |
| 20260505230018 | 27 | 165 | 0.0 | 4.8 | 0.00 | 0.00 | 0.00 | 73 | 1006.8 |
| 20260505230009 | 27 | 150 | 3.2 | 12.9 | 0.00 | 0.00 | 0.00 | 73 | 1006.0 |
| 20260505225510 | 28 | 171 | 4.8 | 14.5 | 0.00 | 0.00 | 0.00 | 73 | 1006.0 |
| 20260505225506 | 28 | 171 | 1.6 | 6.4 | 0.00 | 0.00 | 0.00 | 73 | 1006.7 |
| 20260505225009 | 27 | 147 | 6.4 | 14.5 | 0.00 | 0.00 | 0.00 | 73 | 1006.1 |
| 20260505225007 | 27 | 210 | 0.0 | 8.0 | 0.00 | 0.00 | 0.00 | 73 | 1006.8 |
| 20260505224534 | 27 | 208 | 1.6 | 8.0 | 0.00 | 0.00 | 0.00 | 72 | 1006.9 |
| 20260505224508 | 27 | 132 | 8.0 | 16.1 | 0.00 | 0.00 | 0.00 | 72 | 1006.1 |
| 20260505224007 | 28 | 182 | 3.2 | 12.9 | 0.00 | 0.00 | 0.00 | 71 | 1006.9 |
| 20260505223514 | 28 | 197 | 1.6 | 12.9 | 0.00 | 0.00 | 0.00 | 72 | 1007.0 |
| 20260505223509 | 28 | 186 | 8.0 | 16.1 | 0.00 | 0.00 | 0.00 | 72 | 1006.2 |
| 20260505223038 | 28 | 220 | 1.6 | 9.7 | 0.00 | 0.00 | 0.00 | 71 | 1006.9 |
| 20260505223025 | 28 | 178 | 9.7 | 17.7 | 0.00 | 0.00 | 0.00 | 71 | 1006.2 |
| 20260505222507 | 28 | 163 | 1.6 | 9.7 | 0.00 | 0.00 | 0.00 | 70 | 1006.9 |
| 20260505222505 | 28 | 190 | 8.0 | 17.7 | 0.00 | 0.00 | 0.00 | 70 | 1006.1 |
| 20260505222009 | 28 | 216 | 1.6 | 9.7 | 0.00 | 0.00 | 0.00 | 71 | 1006.9 |
| 20260505222007 | 28 | 212 | 9.7 | 17.7 | 0.00 | 0.00 | 0.00 | 71 | 1006.1 |
| 20260505221524 | 28 | 206 | 1.6 | 9.7 | 0.00 | 0.00 | 0.00 | 72 | 1007.0 |
| 20260505221510 | 28 | 177 | 8.0 | 17.7 | 0.00 | 0.00 | 0.00 | 72 | 1006.3 |
| 20260505221012 | 28 | 198 | 1.6 | 9.7 | 0.00 | 0.00 | 0.00 | 73 | 1007.0 |
| 20260505221004 | 28 | 191 | 11.3 | 16.1 | 0.00 | 0.00 | 0.00 | 73 | 1006.3 |
| 20260505220509 | 27 | 179 | 1.6 | 4.8 | 0.00 | 0.00 | 0.00 | 74 | 1007.2 |
| 20260505220505 | 27 | 207 | 6.4 | 16.1 | 0.00 | 0.00 | 0.00 | 74 | 1006.5 |
| 20260505220033 | 27 | 227 | 1.6 | 12.9 | 0.00 | 0.00 | 0.00 | 73 | 1007.2 |
| 20260505220027 | 27 | 155 | 8.0 | 25.7 | 0.00 | 0.00 | 0.00 | 73 | 1006.5 |
| 20260505215512 | 27 | 207 | 1.6 | 12.9 | 0.00 | 0.00 | 0.00 | 73 | 1007.2 |
| 20260505215510 | 27 | 186 | 11.3 | 25.7 | 0.00 | 0.00 | 0.00 | 73 | 1006.5 |
| 20260505215009 | 28 | 246 | 1.6 | 12.9 | 0.00 | 0.00 | 0.00 | 72 | 1007.3 |
| 20260505215004 | 28 | 206 | 8.0 | 19.3 | 0.00 | 0.00 | 0.00 | 72 | 1006.6 |
| 20260505214525 | 28 | 195 | 11.3 | 19.3 | 0.00 | 0.00 | 0.00 | 71 | 1006.6 |
| 20260505214521 | 28 | 238 | 1.6 | 17.7 | 0.00 | 0.00 | 0.00 | 71 | 1007.3 |
| 20260505214010 | 28 | 120 | 6.4 | 17.7 | 0.00 | 0.00 | 0.00 | 71 | 1006.5 |
| 20260505214008 | 28 | 171 | 3.2 | 17.7 | 0.00 | 0.00 | 0.00 | 71 | 1007.2 |
| 20260505213512 | 28 | 162 | 3.2 | 8.0 | 0.00 | 0.00 | 0.00 | 71 | 1007.2 |
| 20260505213507 | 28 | 176 | 9.7 | 19.3 | 0.00 | 0.00 | 0.00 | 71 | 1006.6 |
| 20260505213038 | 28 | 248 | 1.6 | 8.0 | 0.00 | 0.00 | 0.00 | 72 | 1007.3 |
| 20260505213019 | 28 | 147 | 8.0 | 19.3 | 0.00 | 0.00 | 0.00 | 72 | 1006.6 |
| 20260505212509 | 28 | 162 | 11.3 | 22.5 | 0.00 | 0.00 | 0.00 | 71 | 1006.7 |
| 20260505212504 | 28 | 194 | 1.6 | 11.3 | 0.00 | 0.00 | 0.00 | 71 | 1007.3 |
| 20260505212014 | 28 | 170 | 14.5 | 22.5 | 0.00 | 0.00 | 0.00 | 70 | 1006.8 |
| 20260505212004 | 28 | 132 | 4.8 | 11.3 | 0.00 | 0.00 | 0.00 | 70 | 1007.5 |
| 20260505211510 | 28 | 148 | 6.4 | 22.5 | 0.00 | 0.00 | 0.00 | 72 | 1006.8 |
| 20260505211506 | 28 | 254 | 1.6 | 12.9 | 0.00 | 0.00 | 0.00 | 72 | 1007.4 |
| 20260505211007 | 28 | 132 | 1.6 | 11.3 | 0.00 | 0.00 | 0.00 | 72 | 1007.4 |
| 20260505211005 | 28 | 165 | 9.7 | 22.5 | 0.00 | 0.00 | 0.00 | 72 | 1006.8 |
| 20260505210505 | 28 | 180 | 3.2 | 11.3 | 0.00 | 0.00 | 0.00 | 73 | 1007.5 |
| 20260505210012 | 27 | 185 | 9.7 | 19.3 | 0.00 | 0.00 | 0.00 | 73 | 1007.0 |
| 20260505210010 | 27 | 194 | 1.6 | 6.4 | 0.00 | 0.00 | 0.00 | 73 | 1007.7 |
| 20260505205513 | 27 | 217 | 11.3 | 19.3 | 0.00 | 0.00 | 0.00 | 74 | 1007.1 |
| 20260505205509 | 27 | 97 | 1.6 | 6.4 | 0.00 | 0.00 | 0.00 | 74 | 1007.9 |
| 20260505205014 | 27 | 154 | 1.6 | 12.9 | 0.00 | 0.00 | 0.00 | 74 | 1008.0 |
| 20260505205007 | 27 | 232 | 9.7 | 19.3 | 0.00 | 0.00 | 0.00 | 74 | 1007.3 |
| 20260505204523 | 27 | 217 | 11.3 | 27.4 | 0.00 | 0.00 | 0.00 | 72 | 1007.5 |
| 20260505204510 | 27 | 156 | 3.2 | 12.9 | 0.00 | 0.00 | 0.00 | 72 | 1008.1 |
| 20260505204004 | 27 | 174 | 1.6 | 9.7 | 0.00 | 0.00 | 0.00 | 73 | 1008.1 |
| 20260505204002 | 27 | 120 | 6.4 | 27.4 | 0.00 | 0.00 | 0.00 | 73 | 1007.5 |
| 20260505203506 | 27 | 65 | 4.8 | 24.1 | 0.00 | 0.00 | 0.00 | 76 | 1007.6 |
| 20260505203024 | 27 | 166 | 12.9 | 24.1 | 0.00 | 0.00 | 0.00 | 74 | 1007.6 |
| 20260505203004 | 27 | 202 | 3.2 | 11.3 | 0.00 | 0.00 | 0.00 | 74 | 1008.3 |
| 20260505202508 | 27 | 188 | 6.4 | 24.1 | 0.00 | 0.00 | 0.00 | 74 | 1007.7 |
| 20260505202503 | 27 | 162 | 1.6 | 11.3 | 0.00 | 0.00 | 0.00 | 74 | 1008.3 |
| 20260505202008 | 27 | 202 | 9.7 | 17.7 | 0.00 | 0.00 | 0.00 | 75 | 1007.7 |
| 20260505202003 | 27 | 199 | 1.6 | 9.7 | 0.00 | 0.00 | 0.00 | 75 | 1008.4 |
| 20260505201522 | 27 | 170 | 6.4 | 17.7 | 0.00 | 0.00 | 0.00 | 74 | 1007.7 |
| 20260505201508 | 27 | 142 | 3.2 | 6.4 | 0.00 | 0.00 | 0.00 | 74 | 1008.4 |
| 20260505201009 | 27 | 171 | 6.4 | 17.7 | 0.00 | 0.00 | 0.00 | 74 | 1007.8 |
| 20260505201004 | 27 | 263 | 1.6 | 8.0 | 0.00 | 0.00 | 0.00 | 74 | 1008.5 |
| 20260505200510 | 27 | 163 | 3.2 | 8.0 | 0.00 | 0.00 | 0.00 | 75 | 1008.5 |
| 20260505200507 | 27 | 160 | 8.0 | 17.7 | 0.00 | 0.00 | 0.00 | 75 | 1007.8 |
| 20260505200012 | 27 | 192 | 1.6 | 8.0 | 0.00 | 0.00 | 0.00 | 76 | 1008.6 |
| 20260505195503 | 27 | 163 | 1.6 | 12.9 | 0.00 | 0.00 | 0.00 | 75 | 1008.7 |
| 20260505195007 | 27 | 193 | 12.9 | 19.3 | 0.00 | 0.00 | 0.00 | 73 | 1008.0 |
| 20260505195003 | 27 | 171 | 1.6 | 12.9 | 0.00 | 0.00 | 0.00 | 73 | 1008.8 |
| 20260505194520 | 27 | 166 | 6.4 | 32.2 | 0.00 | 0.00 | 0.00 | 76 | 1008.1 |
| 20260505194516 | 27 | 133 | 1.6 | 8.0 | 0.00 | 0.00 | 0.00 | 76 | 1008.9 |
| 20260505194014 | 27 | 135 | 3.2 | 14.5 | 0.00 | 0.00 | 0.00 | 74 | 1009.0 |
| 20260505194011 | 27 | 142 | 9.7 | 32.2 | 0.00 | 0.00 | 0.00 | 74 | 1008.2 |
| 20260505193508 | 27 | 189 | 8.0 | 24.1 | 0.00 | 0.00 | 0.00 | 78 | 1008.3 |
| 20260505193503 | 27 | 193 | 1.6 | 14.5 | 0.00 | 0.00 | 0.00 | 78 | 1009.1 |
| 20260505193034 | 27 | 169 | 1.6 | 14.5 | 0.00 | 0.00 | 0.00 | 76 | 1009.1 |
| 20260505193011 | 27 | 143 | 9.7 | 24.1 | 0.00 | 0.00 | 0.00 | 76 | 1008.3 |
| 20260505192506 | 27 | 227 | 14.5 | 25.7 | 0.00 | 0.00 | 0.00 | 74 | 1008.3 |
| 20260505192011 | 27 | 219 | 16.1 | 25.7 | 0.00 | 0.00 | 0.00 | 75 | 1008.4 |
| 20260505192003 | 27 | 242 | 3.2 | 12.9 | 0.00 | 0.00 | 0.00 | 75 | 1009.2 |
| 20260505191526 | 27 | 162 | 11.3 | 22.5 | 0.00 | 0.00 | 0.00 | 74 | 1008.5 |
| 20260505191507 | 27 | 201 | 3.2 | 8.0 | 0.00 | 0.00 | 0.00 | 74 | 1009.2 |
| 20260505191006 | 27 | 197 | 11.3 | 25.7 | 0.00 | 0.00 | 0.00 | 77 | 1008.5 |
| 20260505191003 | 27 | 248 | 1.6 | 16.1 | 0.00 | 0.00 | 0.00 | 77 | 1009.2 |
| 20260505190514 | 26 | 221 | 11.3 | 25.7 | 0.00 | 0.00 | 0.00 | 77 | 1008.5 |
| 20260505190502 | 26 | 196 | 1.6 | 16.1 | 0.00 | 0.00 | 0.00 | 77 | 1009.2 |
| 20260505190029 | 26 | 97 | 9.7 | 19.3 | 0.00 | 0.00 | 0.00 | 78 | 1008.5 |
| 20260505190016 | 26 | 145 | 1.6 | 4.8 | 0.00 | 0.00 | 0.00 | 78 | 1009.2 |
| 20260505185506 | 26 | 180 | 1.6 | 11.3 | 0.00 | 0.00 | 0.00 | 77 | 1009.2 |
| 20260505185007 | 26 | 161 | 11.3 | 17.7 | 0.00 | 0.00 | 0.00 | 77 | 1008.7 |
| 20260505185004 | 26 | 169 | 3.2 | 11.3 | 0.00 | 0.00 | 0.00 | 77 | 1009.3 |
| 20260505184514 | 26 | 183 | 9.7 | 17.7 | 0.00 | 0.00 | 0.00 | 80 | 1008.7 |
| 20260505184504 | 26 | 245 | 1.6 | 9.7 | 0.00 | 0.00 | 0.00 | 80 | 1009.4 |
| 20260505184006 | 26 | 153 | 9.7 | 19.3 | 0.00 | 0.00 | 0.00 | 81 | 1008.8 |
| 20260505184004 | 26 | 186 | 3.2 | 16.1 | 0.00 | 0.00 | 0.00 | 81 | 1009.4 |
| 20260505183507 | 25 | 172 | 9.7 | 20.9 | 0.00 | 0.00 | 0.00 | 80 | 1008.8 |
| 20260505183503 | 25 | 198 | 1.6 | 16.1 | 0.00 | 0.00 | 0.00 | 80 | 1009.4 |
| 20260505183031 | 25 | 228 | 9.7 | 20.9 | 0.00 | 0.00 | 0.00 | 81 | 1008.9 |
| 20260505183027 | 25 | 232 | 1.6 | 6.4 | 0.00 | 0.00 | 0.00 | 81 | 1009.4 |
| 20260505182506 | 25 | 165 | 11.3 | 17.7 | 0.00 | 0.00 | 0.00 | 82 | 1009.1 |
| 20260505182504 | 25 | 207 | 1.6 | 14.5 | 0.00 | 0.00 | 0.00 | 82 | 1009.6 |
| 20260505182012 | 25 | 175 | 11.3 | 19.3 | 0.00 | 0.00 | 0.00 | 80 | 1009.1 |
| 20260505182007 | 25 | 212 | 3.2 | 14.5 | 0.00 | 0.00 | 0.00 | 80 | 1009.6 |
| 20260505181521 | 25 | 194 | 1.6 | 12.9 | 0.00 | 0.00 | 0.00 | 81 | 1009.7 |
| 20260505181519 | 25 | 165 | 11.3 | 20.9 | 0.00 | 0.00 | 0.00 | 81 | 1009.2 |
| 20260505181012 | 25 | 188 | 11.3 | 20.9 | 0.00 | 0.00 | 0.00 | 82 | 1009.2 |
| 20260505181009 | 25 | 208 | 4.8 | 12.9 | 0.00 | 0.00 | 0.00 | 82 | 1009.8 |
| 20260505180514 | 25 | 192 | 11.3 | 17.7 | 0.00 | 0.00 | 0.00 | 81 | 1009.2 |
| 20260505180504 | 25 | 205 | 4.8 | 8.0 | 0.00 | 0.00 | 0.00 | 81 | 1009.8 |
| 20260505180008 | 25 | 213 | 9.7 | 19.3 | 0.00 | 0.00 | 0.00 | 81 | 1009.2 |
| 20260505175503 | 25 | 210 | 1.6 | 9.7 | 0.00 | 0.00 | 0.00 | 83 | 1009.7 |
| 20260505175003 | 24 | 172 | 3.2 | 8.0 | 0.00 | 0.00 | 0.00 | 82 | 1009.8 |
| 20260505174513 | 24 | 193 | 12.9 | 19.3 | 0.00 | 0.00 | 0.00 | 82 | 1009.3 |
| 20260505174511 | 24 | 224 | 1.6 | 12.9 | 0.00 | 0.00 | 0.00 | 82 | 1009.9 |
| 20260505174007 | 24 | 190 | 1.6 | 12.9 | 0.00 | 0.00 | 0.00 | 82 | 1010.0 |
| 20260505173503 | 24 | 219 | 11.3 | 19.3 | 0.00 | 0.00 | 0.00 | 82 | 1009.4 |
| 20260505173009 | 25 | 177 | 0.0 | 9.7 | 0.00 | 0.00 | 0.00 | 82 | 1009.9 |
| 20260505173007 | 25 | 158 | 8.0 | 19.3 | 0.00 | 0.00 | 0.00 | 82 | 1009.4 |
| 20260505172509 | 25 | 204 | 9.7 | 19.3 | 0.00 | 0.00 | 0.00 | 81 | 1009.4 |
| 20260505172507 | 25 | 236 | 1.6 | 11.3 | 0.00 | 0.00 | 0.00 | 81 | 1009.9 |
| 20260505172020 | 25 | 237 | 3.2 | 12.9 | 0.00 | 0.00 | 0.00 | 82 | 1009.9 |
| 20260505172003 | 25 | 188 | 12.9 | 20.9 | 0.00 | 0.00 | 0.00 | 82 | 1009.4 |
| 20260505171521 | 24 | 254 | 1.6 | 12.9 | 0.00 | 0.00 | 0.00 | 84 | 1009.9 |
| 20260505171503 | 24 | 163 | 12.9 | 20.9 | 0.00 | 0.00 | 0.00 | 84 | 1009.4 |
| 20260505171005 | 24 | 213 | 1.6 | 11.3 | 0.00 | 0.00 | 0.00 | 83 | 1009.9 |
| 20260505171003 | 24 | 184 | 14.5 | 20.9 | 0.00 | 0.00 | 0.00 | 83 | 1009.3 |
| 20260505170514 | 24 | 241 | 3.2 | 11.3 | 0.00 | 0.00 | 0.00 | 82 | 1009.9 |
| 20260505170502 | 24 | 146 | 12.9 | 22.5 | 0.00 | 0.00 | 0.00 | 82 | 1009.3 |
| 20260505170011 | 24 | 233 | 3.2 | 17.7 | 0.00 | 0.00 | 0.00 | 83 | 1009.9 |
| 20260505170004 | 24 | 203 | 14.5 | 24.1 | 0.00 | 0.00 | 0.00 | 83 | 1009.4 |
| 20260505165503 | 24 | 178 | 12.9 | 24.1 | 0.00 | 0.00 | 0.00 | 84 | 1009.4 |
| 20260505165004 | 23 | 186 | 1.6 | 8.0 | 0.00 | 0.00 | 0.00 | 84 | 1009.9 |
| 20260505164523 | 23 | 158 | 1.6 | 9.7 | 0.00 | 0.00 | 0.00 | 84 | 1010.0 |
| 20260505164506 | 23 | 159 | 9.7 | 20.9 | 0.00 | 0.00 | 0.00 | 84 | 1009.3 |
| 20260505164004 | 23 | 211 | 11.3 | 24.1 | 0.00 | 0.00 | 0.00 | 84 | 1009.3 |
| 20260505163504 | 23 | 177 | 11.3 | 24.1 | 0.00 | 0.00 | 0.00 | 85 | 1009.4 |
| 20260505163018 | 23 | 238 | 3.2 | 14.5 | 0.00 | 0.00 | 0.00 | 85 | 1010.1 |
| 20260505163015 | 23 | 196 | 14.5 | 24.1 | 0.00 | 0.00 | 0.00 | 85 | 1009.4 |
| 20260505162505 | 23 | 163 | 3.2 | 9.7 | 0.00 | 0.00 | 0.00 | 85 | 1010.1 |
| 20260505162503 | 23 | 156 | 11.3 | 25.7 | 0.00 | 0.00 | 0.00 | 85 | 1009.5 |
| 20260505162007 | 23 | 198 | 14.5 | 25.7 | 0.00 | 0.00 | 0.00 | 85 | 1009.6 |
| 20260505161518 | 23 | 173 | 3.2 | 12.9 | 0.00 | 0.00 | 0.00 | 86 | 1010.3 |
| 20260505161008 | 23 | 194 | 3.2 | 17.7 | 0.00 | 0.00 | 0.00 | 87 | 1010.3 |
| 20260505161004 | 23 | 163 | 11.3 | 19.3 | 0.00 | 0.00 | 0.00 | 87 | 1009.6 |
| 20260505160504 | 22 | 238 | 4.8 | 17.7 | 0.00 | 0.00 | 0.00 | 87 | 1010.4 |
| 20260505160502 | 22 | 217 | 12.9 | 27.4 | 0.00 | 0.00 | 0.00 | 87 | 1009.7 |
| 20260505153008 | 22 | 198 | 11.3 | 19.3 | 0.00 | 0.00 | 0.00 | 88 | 1009.3 |
| 20260505153006 | 22 | 221 | 1.6 | 11.3 | 0.00 | 0.00 | 0.00 | 88 | 1010.1 |
| 20260505152507 | 22 | 199 | 12.9 | 19.3 | 0.00 | 0.00 | 0.00 | 89 | 1009.2 |
| 20260505152504 | 22 | 191 | 1.6 | 9.7 | 0.00 | 0.00 | 0.00 | 89 | 1009.9 |
| 20260505152015 | 22 | 213 | 1.6 | 11.3 | 0.00 | 0.00 | 0.00 | 89 | 1010.0 |
| 20260505152006 | 22 | 203 | 9.7 | 20.9 | 0.00 | 0.00 | 0.00 | 89 | 1009.3 |
| 20260505151518 | 22 | 260 | 0.0 | 11.3 | 0.00 | 0.00 | 0.00 | 89 | 1010.1 |
| 20260505151503 | 22 | 235 | 9.7 | 20.9 | 0.00 | 0.00 | 0.00 | 89 | 1009.3 |
| 20260505151003 | 22 | 182 | 11.3 | 19.3 | 0.00 | 0.00 | 0.00 | 89 | 1009.3 |
| 20260505150513 | 22 | 214 | 1.6 | 12.9 | 0.00 | 0.00 | 0.00 | 89 | 1010.0 |
| 20260505150506 | 22 | 192 | 11.3 | 20.9 | 0.00 | 0.00 | 0.00 | 89 | 1009.3 |
| 20260505140512 | 21 | 232 | 3.2 | 12.9 | 0.00 | 0.00 | 0.00 | 88 | 1009.6 |
| 20260505140502 | 21 | 200 | 9.7 | 22.5 | 0.00 | 0.00 | 0.00 | 88 | 1008.9 |
| 20260505125006 | 21 | 205 | 1.6 | 6.4 | 0.00 | 0.00 | 0.00 | 89 | 1009.1 |
| 20260505125004 | 21 | 177 | 9.7 | 19.3 | 0.00 | 0.00 | 0.00 | 89 | 1008.4 |
| 20260505124530 | 21 | 202 | 8.0 | 17.7 | 0.00 | 0.00 | 0.00 | 88 | 1008.4 |
| 20260505124520 | 21 | 193 | 1.6 | 6.4 | 0.00 | 0.00 | 0.00 | 88 | 1009.2 |
| 20260505124011 | 21 | 209 | 1.6 | 16.1 | 0.00 | 0.00 | 0.00 | 88 | 1009.1 |
| 20260505124009 | 21 | 173 | 8.0 | 17.7 | 0.00 | 0.00 | 0.00 | 88 | 1008.3 |
| 20260505123504 | 21 | 178 | 1.6 | 16.1 | 0.00 | 0.00 | 0.00 | 88 | 1009.0 |
| 20260505123502 | 21 | 195 | 9.7 | 20.9 | 0.00 | 0.00 | 0.00 | 88 | 1008.1 |
| 20260505123019 | 21 | 196 | 3.2 | 6.4 | 0.00 | 0.00 | 0.00 | 88 | 1009.0 |
| 20260505123011 | 21 | 234 | 12.9 | 20.9 | 0.00 | 0.00 | 0.00 | 88 | 1008.2 |
| 20260505122504 | 21 | 158 | 8.0 | 20.9 | 0.00 | 0.00 | 0.00 | 88 | 1008.1 |
| 20260505122004 | 21 | 192 | 1.6 | 8.0 | 0.00 | 0.00 | 0.00 | 88 | 1008.9 |
| 20260505122002 | 21 | 221 | 12.9 | 20.9 | 0.00 | 0.00 | 0.00 | 88 | 1008.1 |
| 20260505121512 | 21 | 158 | 11.3 | 17.7 | 0.00 | 0.00 | 0.00 | 88 | 1008.0 |
| 20260505121004 | 21 | 173 | 1.6 | 8.0 | 0.00 | 0.00 | 0.00 | 88 | 1008.7 |
| 20260505120508 | 21 | 195 | 3.2 | 6.4 | 0.00 | 0.00 | 0.00 | 88 | 1008.7 |
| 20260505120504 | 21 | 245 | 8.0 | 16.1 | 0.00 | 0.00 | 0.00 | 88 | 1007.9 |
| 20260505120008 | 21 | 163 | 1.6 | 8.0 | 0.00 | 0.00 | 0.00 | 87 | 1008.7 |
| 20260505115509 | 21 | 158 | 1.6 | 8.0 | 0.00 | 0.00 | 0.00 | 87 | 1008.5 |
| 20260505115506 | 21 | 175 | 9.7 | 19.3 | 0.00 | 0.00 | 0.00 | 87 | 1007.7 |
| 20260505115007 | 21 | 200 | 1.6 | 8.0 | 0.00 | 0.00 | 0.00 | 87 | 1008.7 |
| 20260505114525 | 21 | 220 | 3.2 | 8.0 | 0.00 | 0.00 | 0.00 | 87 | 1008.7 |
| 20260505114522 | 21 | 176 | 11.3 | 22.5 | 0.00 | 0.00 | 0.00 | 87 | 1007.9 |
| 20260505114007 | 21 | 180 | 8.0 | 19.3 | 0.00 | 0.00 | 0.00 | 87 | 1007.9 |
| 20260505114004 | 21 | 238 | 1.6 | 6.4 | 0.00 | 0.00 | 0.00 | 87 | 1008.6 |
| 20260505113509 | 21 | 194 | 1.6 | 9.7 | 0.00 | 0.00 | 0.00 | 87 | 1008.6 |
| 20260505113507 | 21 | 128 | 8.0 | 22.5 | 0.00 | 0.00 | 0.00 | 87 | 1007.8 |
| 20260505113023 | 21 | 167 | 12.9 | 22.5 | 0.00 | 0.00 | 0.00 | 87 | 1007.8 |
| 20260505112504 | 21 | 222 | 3.2 | 17.7 | 0.00 | 0.00 | 0.00 | 87 | 1008.7 |
| 20260505112502 | 21 | 219 | 11.3 | 20.9 | 0.00 | 0.00 | 0.00 | 87 | 1008.1 |
| 20260505112007 | 21 | 242 | 3.2 | 12.9 | 0.00 | 0.00 | 0.00 | 87 | 1008.7 |
| 20260505112003 | 21 | 219 | 9.7 | 25.7 | 0.00 | 0.00 | 0.00 | 87 | 1008.0 |
| 20260505111516 | 21 | 128 | 3.2 | 12.9 | 0.00 | 0.00 | 0.00 | 87 | 1008.5 |
| 20260505111512 | 21 | 191 | 11.3 | 25.7 | 0.00 | 0.00 | 0.00 | 87 | 1007.9 |
| 20260505111006 | 21 | 257 | 11.3 | 19.3 | 0.00 | 0.00 | 0.00 | 87 | 1008.1 |
| 20260505110506 | 21 | 178 | 8.0 | 24.1 | 0.00 | 0.00 | 0.00 | 87 | 1008.0 |